Ponca City, OK

11:46 AM CDT on October 14, 2019 (GMT -0500)
Ponca City Municipal

Weather History for KPNC - June, 2019

Change the Weather History Date:

Monday, June 3, 2019

  Actual Average Record
Temperature  
Mean Temperature 76 °F -  
Max Temperature 84 °F 84 °F 98 °F (2011)
Min Temperature 69 °F 60 °F 47 °F (1969)
Cooling Degree Days 12    
Growing Degree Days 26 (Base 50)    
Moisture  
Dew Point 68 °F    
Average Humidity 78    
Maximum Humidity 93    
Minimum Humidity 57    
Precipitation  
Precipitation 0.00 in - - ()
Sea Level Pressure  
Sea Level Pressure 29.90 in    
Wind  
Wind Speed 7 mph (SE)    
Max Wind Speed 18 mph    
Max Gust Speed -    
Visibility 10 miles    
Events      
Averages and records for this station are not official NWS values.
T = Trace of Precipitation, MM = Missing Value Source: NWS Daily Summary

Daily Weather History Graph

Daily Weather History Graph

Search for Another Location

Airport or City:

Astronomy

Jun. 03, 2019 Rise Set
Actual Time 6:10 AM CDT 8:42 PM CDT
Civil Twilight 5:40 AM CDT 9:13 PM CDT
Nautical Twilight 5:02 AM CDT 9:50 PM CDT
Astronomical Twilight 4:21 AM CDT 10:32 PM CDT
Moon 6:30 AM CDT (6/3) 9:09 PM CDT (6/3)
Length of Visible Light 15h 32m
Length of Day
14h 32m
New Moon, 0% of the Moon is Illuminated
Jun 3
New Moon
Jun 10
First Quarter
Jun 17
Full
Jun 25
Last Quarter
Jul 2
New

Hourly Weather History & Observations

Time (CDT) Temp. Heat Index Dew Point Humidity Pressure Visibility Wind Dir Wind Speed Gust Speed Precip Events Conditions
12:53 AM 73.0 °F - 68.0 °F 84% 29.95 in 10.0 mi ESE 4.6 mph - N/A   Clear
1:53 AM 73.0 °F - 68.0 °F 84% 29.93 in 10.0 mi SE 3.5 mph - N/A   Clear
2:53 AM 70.0 °F - 66.9 °F 90% 29.91 in 10.0 mi Calm Calm - N/A   Clear
3:53 AM 70.0 °F - 66.9 °F 90% 29.91 in 10.0 mi East 3.5 mph - N/A   Clear
4:53 AM 70.0 °F - 66.9 °F 90% 29.93 in 10.0 mi SE 3.5 mph - N/A   Clear
5:53 AM 69.1 °F - 66.9 °F 93% 29.92 in 10.0 mi ESE 6.9 mph - N/A   Clear
6:53 AM 70.0 °F - 66.9 °F 90% 29.90 in 10.0 mi ESE 6.9 mph - N/A   Clear
7:53 AM 71.1 °F - 66.9 °F 87% 29.91 in 10.0 mi SSE 6.9 mph - N/A   Mostly Cloudy
8:53 AM 73.0 °F - 68.0 °F 84% 29.92 in 10.0 mi ESE 6.9 mph - N/A   Clear
9:53 AM 75.9 °F - 68.0 °F 76% 29.94 in 10.0 mi SE 11.5 mph - N/A   Clear
10:53 AM 79.0 °F - 68.0 °F 69% 29.95 in 10.0 mi South 8.1 mph - N/A   Clear
11:53 AM 78.1 °F - 69.1 °F 74% 29.95 in 10.0 mi South 6.9 mph - 0.00 in   Mostly Cloudy
12:53 PM 77.0 °F - 68.0 °F 74% 29.94 in 10.0 mi Variable 5.8 mph - N/A   Mostly Cloudy
1:53 PM 80.1 °F 82.3 °F 66.9 °F 64% 29.92 in 10.0 mi South 6.9 mph - N/A   Clear
2:53 PM 82.9 °F 85.8 °F 68.0 °F 60% 29.89 in 10.0 mi SSW 6.9 mph - N/A   Clear
3:53 PM 84.0 °F 87.0 °F 68.0 °F 58% 29.87 in 10.0 mi SSW 6.9 mph - N/A   Clear
4:53 PM 84.0 °F 88.4 °F 70.0 °F 63% 29.84 in 10.0 mi Variable 6.9 mph - N/A   Partly Cloudy
5:53 PM 84.9 °F 88.2 °F 68.0 °F 57% 29.84 in 10.0 mi SE 11.5 mph - N/A   Scattered Clouds
7:53 PM 81.0 °F 85.2 °F 72.0 °F 74% 29.85 in 10.0 mi SE 11.5 mph - N/A   Clear
8:53 PM 77.0 °F - 71.1 °F 82% 29.87 in 10.0 mi SE 18.4 mph - N/A   Partly Cloudy
9:53 PM 75.0 °F - 69.1 °F 82% 29.88 in 10.0 mi SSE 15.0 mph - N/A   Clear
10:53 PM 73.9 °F - 69.1 °F 85% 29.88 in 10.0 mi SSE 15.0 mph - N/A   Clear
11:53 PM 73.0 °F - 69.1 °F 87% 29.91 in 10.0 mi SSE 15.0 mph - N/A   Partly Cloudy